Latest Weather Observations for Stawell

IDV60801

Issued at 8:35 pm EST Tuesday 29 July 2014 (issued every 30 minutes, with the page automatically refreshed every 10 minutes)

About weather observations | Map of weather stations | Latest weather observations for VIC | Other Formats
Station Details ID: 079105 Name: STAWELL AERODROME Lat: -37.07 Lon: 142.74 Height: 235.36 m
Data from the previous 72 hours. | See also: Recent months at Stawell
Date/Time
EST
Temp
°C
App
Temp
°C
Dew
Point
Rel
Hum
%
Delta-T
°C
Wind Press
QNH
hPa
Press
MSL
hPa
Rain
since 9 am
mm
Dir
 
Spd
km/h
Gust
km/h
Spd
kts
Gust
kts
29/08:30pm 12.9 8.2 10.8 87 1.1 WNW 26 39 14 21 1011.2 - 1.4
29/08:02pm 13.0 7.2 10.7 86 1.2 NW 32 50 17 27 1010.9 - 1.4
29/08:00pm 12.8 7.0 10.7 87 1.1 NW 32 43 17 23 1011.1 - 1.4
29/07:30pm 12.9 8.7 11.0 88 1.0 NW 24 46 13 25 1011.1 - 1.4
29/07:00pm 12.7 9.0 11.4 92 0.7 NW 22 33 12 18 1011.2 - 1.4
29/06:30pm 12.5 8.1 11.7 95 0.4 NW 26 35 14 19 1010.7 - 1.4
29/06:00pm 12.3 9.3 12.0 98 0.2 NW 19 28 10 15 1010.4 1011.6 1.4
29/05:30pm 12.5 8.9 11.7 95 0.4 NW 22 35 12 19 1009.8 - 0.6
29/05:00pm 12.7 7.5 11.6 93 0.6 NW 30 43 16 23 1009.4 - 0.2
29/04:30pm 13.6 7.8 10.9 84 1.4 NW 32 44 17 24 1009.2 - 0.0
29/04:06pm 13.5 7.8 11.0 85 1.3 NW 32 50 17 27 1009.0 - 0.0
29/04:00pm 13.4 9.2 11.1 86 1.2 NW 24 43 13 23 1008.9 - 0.0
29/03:30pm 12.8 7.1 11.2 90 0.9 WNW 32 46 17 25 1009.0 - 0.0
29/03:00pm 13.0 7.0 10.9 87 1.1 NW 33 57 18 31 1008.7 1009.9 0.0
29/02:30pm 13.1 7.0 10.6 85 1.3 NW 33 52 18 28 1008.7 - 0.0
29/02:20pm 13.2 8.1 10.7 85 1.3 NW 28 46 15 25 1008.5 - 0.0
29/02:00pm 12.3 7.3 11.0 92 0.7 NW 28 39 15 21 1008.7 - 0.0
29/01:30pm 12.8 6.7 10.3 85 1.3 NW 33 50 18 27 1008.4 - 0.0
29/01:01pm 13.1 6.4 9.7 80 1.8 NW 35 57 19 31 1008.7 - 0.0
29/01:00pm 13.1 6.8 9.7 80 1.8 NW 33 50 18 27 1008.8 - 0.0
29/12:50pm 13.5 6.8 9.6 77 2.0 WNW 35 57 19 31 1008.8 - 0.0
29/12:30pm 13.1 7.0 9.9 81 1.7 NW 32 48 17 26 1009.1 - 0.0
29/12:22pm 12.6 6.9 9.8 83 1.4 NW 30 48 16 26 1009.2 - 0.0
29/12:00pm 12.6 7.3 9.8 83 1.5 WNW 28 44 15 24 1009.9 1011.1 0.0
29/11:30am 11.1 5.8 9.7 91 0.7 NW 28 41 15 22 1010.1 - 0.0
29/11:00am 10.5 4.2 8.8 89 0.8 NW 32 44 17 24 1010.2 - 0.0
29/10:30am 10.2 4.5 8.5 89 0.8 NW 28 37 15 20 1010.4 - 0.0
29/10:00am 10.0 4.2 7.9 87 1.0 NW 28 41 15 22 1010.2 - 0.0
29/09:30am 9.6 4.8 7.4 86 1.1 NNW 22 32 12 17 1010.0 - 0.0
29/09:00am 9.1 4.7 7.4 89 0.8 NNW 20 26 11 14 1010.4 1011.6 0.0
29/08:30am 9.0 3.4 7.1 88 0.9 NW 26 35 14 19 1010.4 - 0.0
29/08:00am 9.2 3.6 7.0 86 1.0 NW 26 35 14 19 1010.3 - 0.0
29/07:30am 8.9 3.6 6.7 86 1.0 NW 24 33 13 18 1010.4 - 0.0
29/07:00am 8.7 2.6 6.5 86 1.0 NW 28 39 15 21 1010.0 - 0.0
29/06:30am 8.5 3.1 6.5 87 0.9 NNW 24 32 13 17 1009.8 - 0.0
29/06:00am 8.3 3.7 6.6 89 0.8 NNW 20 28 11 15 1009.7 1010.9 0.0
29/05:30am 7.8 3.2 6.6 92 0.6 NNW 20 32 11 17 1010.0 - 0.0
29/05:00am 7.6 3.2 6.7 94 0.4 NNW 19 28 10 15 1010.2 - 0.0
29/04:30am 7.8 3.2 6.7 93 0.5 NNW 20 28 11 15 1010.0 - 0.0
29/04:00am 7.7 2.8 6.8 94 0.4 NNW 22 30 12 16 1010.3 - 0.0
29/03:30am 7.7 3.4 6.8 94 0.4 NNW 19 28 10 15 1010.3 - 0.0
29/03:00am 7.8 3.3 6.9 94 0.4 NNW 20 24 11 13 1010.4 1011.6 0.0
29/02:30am 8.1 3.3 7.2 94 0.4 NNW 22 30 12 16 1010.7 - 0.0
29/02:00am 8.4 3.6 7.3 93 0.5 NNW 22 30 12 16 1010.8 - 0.0
29/01:30am 8.7 3.9 7.5 92 0.6 NNW 22 33 12 18 1011.0 - 0.0
29/01:00am 9.0 4.3 7.6 91 0.7 NNW 22 28 12 15 1011.5 - 0.0
29/12:30am 9.2 4.1 7.8 91 0.7 NNW 24 30 13 16 1011.7 - 0.0
29/12:00am 9.5 5.3 8.1 91 0.7 NW 20 30 11 16 1012.0 1013.3 0.0
 
Date/Time
EST
Temp
°C
App
Temp
°C
Dew
Point
Rel
Hum
%
Delta-T
°C
Wind Press
QNH
hPa
Press
MSL
hPa
Rain
since 9 am
mm
Dir
 
Spd
km/h
Gust
km/h
Spd
kts
Gust
kts
28/11:30pm 9.8 5.6 8.1 89 0.8 NW 20 30 11 16 1012.4 - 0.0
28/11:00pm 9.8 5.5 7.9 88 0.9 NW 20 30 11 16 1012.6 - 0.0
28/10:30pm 9.7 6.3 7.5 86 1.1 NNW 15 20 8 11 1013.0 - 0.0
28/10:00pm 10.0 5.6 7.3 83 1.3 NW 20 30 11 16 1012.7 - 0.0
28/09:30pm 10.0 5.8 7.4 84 1.3 NNW 19 26 10 14 1012.7 - 0.0
28/09:00pm 10.3 5.9 7.5 83 1.4 NW 20 26 11 14 1012.5 1013.8 0.0
28/08:30pm 10.8 6.5 7.7 81 1.5 NW 20 26 11 14 1012.4 - 0.0
28/08:00pm 11.0 6.6 7.5 79 1.7 NW 20 28 11 15 1012.4 - 0.0
28/07:30pm 11.1 7.3 7.4 78 1.8 NW 17 24 9 13 1012.5 - 0.0
28/07:00pm 11.6 8.1 7.3 75 2.1 NNW 15 20 8 11 1012.3 - 0.0
28/06:30pm 12.2 9.1 7.3 72 2.4 NNW 13 19 7 10 1012.2 - 0.0
28/06:00pm 12.6 9.9 7.3 70 2.6 NNW 11 17 6 9 1012.3 1013.6 0.0
28/05:30pm 13.4 10.7 7.2 66 3.1 NNW 11 17 6 9 1012.0 - 0.0
28/05:00pm 14.2 10.3 7.3 63 3.4 NW 17 28 9 15 1012.0 - 0.0
28/04:30pm 14.8 10.4 7.4 61 3.7 NW 20 28 11 15 1012.1 - 0.0
28/04:00pm 15.0 9.8 7.1 59 3.9 NW 24 33 13 18 1012.2 - 0.0
28/03:30pm 15.2 10.9 8.0 62 3.7 NW 20 30 11 16 1012.2 - 0.0
28/03:00pm 15.0 8.8 7.8 62 3.6 NW 30 43 16 23 1012.3 1013.6 0.0
28/02:30pm 14.5 10.1 8.9 69 2.9 NW 22 35 12 19 1012.2 - 0.0
28/02:00pm 13.5 9.4 8.6 72 2.5 WNW 20 28 11 15 1012.6 - 0.0
28/01:30pm 13.5 8.1 9.4 76 2.1 NW 28 39 15 21 1013.1 - 0.0
28/01:00pm 13.4 9.7 10.0 80 1.8 NNW 20 33 11 18 1013.5 - 0.0
28/12:30pm 12.5 8.8 9.3 81 1.6 NNW 19 28 10 15 1014.1 - 0.0
28/12:00pm 10.7 7.4 7.9 83 1.4 N 15 20 8 11 1014.7 1015.9 0.0
28/11:30am 9.6 6.4 6.7 82 1.4 NNW 13 19 7 10 1015.2 - 0.0
28/11:00am 8.9 5.9 6.0 82 1.3 NNW 11 17 6 9 1015.5 - 0.0
28/10:30am 8.5 5.0 5.6 82 1.3 NNW 13 19 7 10 1015.6 - 0.0
28/10:00am 8.0 4.4 4.9 81 1.4 NNW 13 19 7 10 1015.6 - 0.0
28/09:30am 7.9 3.8 4.5 79 1.5 N 15 20 8 11 1015.5 - 0.0
28/09:00am 7.5 4.5 4.3 80 1.4 N 9 15 5 8 1015.4 1016.7 0.0
28/08:30am 6.5 3.9 4.0 84 1.1 N 7 13 4 7 1015.4 - 0.0
28/08:00am 5.5 2.8 3.8 89 0.7 NNE 7 11 4 6 1015.4 - 0.0
28/07:30am 4.6 1.8 3.1 90 0.6 NNE 7 48 4 26 1015.4 - 0.0
28/07:00am 5.0 2.4 3.2 88 0.8 NNE 6 9 3 5 1015.4 - 0.0
28/06:30am 5.3 2.1 3.3 87 0.8 NNE 9 13 5 7 1015.2 - 0.0
28/06:00am 5.7 1.8 3.4 85 1.0 N 13 19 7 10 1015.3 1016.6 0.0
28/05:30am 6.2 2.0 3.7 84 1.1 N 15 19 8 10 1015.4 - 0.0
28/05:00am 6.2 3.2 3.9 85 1.0 N 9 11 5 6 1015.7 - 0.0
28/04:30am 6.4 3.4 3.9 84 1.1 N 9 13 5 7 1015.8 - 0.0
28/04:00am 6.6 3.6 4.1 84 1.1 N 9 13 5 7 1015.9 - 0.0
28/03:30am 6.7 4.1 4.2 84 1.1 N 7 13 4 7 1016.1 - 0.0
28/03:00am 7.0 4.4 4.3 83 1.2 N 7 9 4 5 1016.4 1017.7 0.0
28/02:30am 7.0 4.4 4.1 82 1.3 NNW 7 9 4 5 1016.6 - 0.0
28/02:00am 7.7 4.7 4.3 79 1.5 N 9 15 5 8 1016.9 - 0.0
28/01:30am 7.9 4.2 4.7 80 1.4 N 13 19 7 10 1017.0 - 0.0
28/01:00am 7.7 4.5 5.0 83 1.2 N 11 15 6 8 1017.3 - 0.0
28/12:30am 7.6 5.2 5.4 86 1.0 N 7 9 4 5 1017.7 - 0.0
28/12:00am 7.1 4.7 5.1 87 0.9 NW 7 9 4 5 1018.1 1019.3 0.0
 
Date/Time
EST
Temp
°C
App
Temp
°C
Dew
Point
Rel
Hum
%
Delta-T
°C
Wind Press
QNH
hPa
Press
MSL
hPa
Rain
since 9 am
mm
Dir
 
Spd
km/h
Gust
km/h
Spd
kts
Gust
kts
27/11:30pm 8.1 5.4 5.6 84 1.1 NNW 9 11 5 6 1018.1 - 0.0
27/11:00pm 8.6 5.2 5.7 82 1.3 N 13 17 7 9 1018.3 - 0.0
27/10:30pm 8.7 5.7 5.8 82 1.3 N 11 15 6 8 1018.5 - 0.0
27/10:00pm 9.1 6.1 6.0 81 1.4 N 11 15 6 8 1018.9 - 0.0
27/09:30pm 9.4 6.4 6.1 80 1.5 N 11 17 6 9 1019.1 - 0.0
27/09:00pm 9.7 6.4 6.4 80 1.5 N 13 17 7 9 1019.0 1020.3 0.0
27/08:30pm 9.9 7.0 6.6 80 1.6 N 11 20 6 11 1019.1 - 0.0
27/08:00pm 10.2 7.4 6.9 80 1.6 N 11 15 6 8 1019.4 - 0.0
27/07:30pm 10.5 7.7 7.0 79 1.7 N 11 17 6 9 1019.5 - 0.0
27/07:00pm 11.0 7.9 7.3 78 1.8 NNW 13 19 7 10 1019.4 - 0.0
27/06:30pm 11.6 8.2 7.5 76 2.0 NNW 15 20 8 11 1019.3 - 0.0
27/06:00pm 12.0 9.0 7.7 75 2.1 NNW 13 20 7 11 1019.1 1020.4 0.0
27/05:30pm 12.4 9.5 8.1 75 2.1 N 13 22 7 12 1018.6 - 0.0
27/05:00pm 13.0 9.7 7.9 71 2.5 NNW 15 20 8 11 1018.6 - 0.0
27/04:30pm 13.4 8.7 7.6 68 2.9 NNW 22 37 12 20 1018.7 - 0.0
27/04:00pm 13.5 9.5 8.1 70 2.7 NNW 19 28 10 15 1019.1 - 0.0
27/03:30pm 13.6 10.1 8.9 73 2.4 NW 17 24 9 13 1019.7 - 0.0
27/03:00pm 13.5 9.4 8.6 72 2.5 NW 20 30 11 16 1019.4 1020.7 0.0
27/02:30pm 13.5 9.4 8.6 72 2.5 NW 20 32 11 17 1019.5 - 0.0
27/02:00pm 13.7 9.4 9.2 74 2.3 NW 22 32 12 17 1019.6 - 0.0
27/01:30pm 13.0 8.9 8.7 75 2.2 NNW 20 33 11 18 1019.8 - 0.0
27/01:00pm 12.6 8.8 9.1 79 1.8 NNW 19 24 10 13 1020.5 - 0.0
27/12:30pm 11.2 8.8 10.1 93 0.6 NNW 13 19 7 10 1021.1 - 0.0
27/12:00pm 9.3 6.2 8.8 97 0.2 NNW 15 22 8 12 1022.3 1023.7 0.0
27/11:30am 8.2 4.5 8.1 99 0.0 NNW 17 24 9 13 1022.8 - 0.0
27/11:00am 7.3 4.2 7.2 99 0.0 N 13 19 7 10 1023.2 - 0.0
27/10:30am 6.8 3.6 6.7 99 0.0 N 13 20 7 11 1023.6 - 0.0
27/10:00am 6.7 2.7 6.6 99 0.0 N 17 22 9 12 1023.6 - 0.0
27/09:30am 6.2 4.0 6.1 99 0.0 N 7 15 4 8 1023.9 - 0.0
27/09:00am 5.8 3.5 5.7 99 0.0 NNE 7 9 4 5 1023.9 1025.2 0.2
27/08:30am 5.7 3.0 5.6 99 0.0 N 9 13 5 7 1023.9 - 0.2
27/08:00am 5.2 3.3 5.1 99 0.0 NE 4 6 2 3 1024.1 - 0.2
27/07:30am 5.0 2.5 4.9 99 0.0 NE 7 11 4 6 1023.9 - 0.2
27/07:00am 5.3 2.9 5.2 99 0.0 E 7 9 4 5 1023.7 - 0.2
27/06:30am 5.2 2.8 5.1 99 0.0 ENE 7 9 4 5 1023.8 - 0.2
27/06:00am 5.0 2.5 4.9 99 0.0 E 7 9 4 5 1023.7 1025.0 0.2
27/05:30am 4.9 2.4 4.8 99 0.0 E 7 7 4 4 1023.5 - 0.2
27/05:00am 4.7 2.2 4.6 99 0.0 E 7 9 4 5 1023.7 - 0.2
27/04:30am 4.7 2.2 4.6 99 0.0 E 7 11 4 6 1023.7 - 0.2
27/04:00am 4.1 1.6 4.0 99 0.0 ENE 6 9 3 5 1024.0 - 0.2
27/03:30am 4.7 2.4 4.6 99 0.0 ENE 6 7 3 4 1024.0 - 0.2
27/03:00am 4.4 1.8 4.3 99 0.0 E 7 9 4 5 1024.1 1025.4 0.2
27/02:30am 5.1 2.8 5.0 99 0.0 E 6 9 3 5 1024.2 - 0.2
27/02:00am 4.5 1.9 4.4 99 0.0 E 7 9 4 5 1024.3 - 0.0
27/01:30am 5.3 2.9 5.2 99 0.0 E 7 9 4 5 1024.5 - 0.0
27/01:00am 5.9 3.8 5.8 99 0.0 E 6 9 3 5 1024.4 - 0.0
27/12:30am 6.4 3.8 6.3 99 0.0 SE 9 13 5 7 1024.8 - 0.0
27/12:00am 4.6 1.7 4.5 99 0.0 E 9 11 5 6 1025.0 1026.3 0.0
 
Date/Time
EST
Temp
°C
App
Temp
°C
Dew
Point
Rel
Hum
%
Delta-T
°C
Wind Press
QNH
hPa
Press
MSL
hPa
Rain
since 9 am
mm
Dir
 
Spd
km/h
Gust
km/h
Spd
kts
Gust
kts
26/11:30pm 4.3 1.7 4.2 99 0.0 E 7 9 4 5 1025.2 - 0.0
26/11:00pm 4.2 1.8 4.1 99 0.0 ESE 6 7 3 4 1025.3 - 0.0
26/10:30pm 4.3 1.7 4.2 99 0.0 E 7 9 4 5 1025.3 - 0.0
26/10:00pm 4.6 2.2 4.5 99 0.0 E 6 7 3 4 1025.4 - 0.0
26/09:30pm 5.2 2.8 5.1 99 0.0 E 7 9 4 5 1025.3 - 0.0
26/09:00pm 5.0 2.5 4.9 99 0.0 E 7 9 4 5 1025.2 1026.5 0.0

Other Formats:

Comma delimited format used in spreadsheet applications
http://www.bom.gov.au/fwo/IDV60801/IDV60801.94836.axf

JavaScript Object Notation format (JSON) in row-major order
http://www.bom.gov.au/fwo/IDV60801/IDV60801.94836.json